TimeCST,TemperatureF,Dew PointF,Humidity,Sea Level PressureIn,VisibilityMPH,Wind Direction,Wind SpeedMPH,Gust SpeedMPH,PrecipitationIn,Events,Conditions,WindDirDegrees,DateUTC
12:14 AM,35.8,32.0,86,30.04,10.0,South,5.8,-,N/A,,Clear,170,2012-11-08 06:14:00
12:35 AM,36.0,32.0,86,30.03,10.0,South,8.1,-,N/A,,Clear,170,2012-11-08 06:35:00
12:54 AM,35.6,32.0,87,30.03,10.0,South,6.9,-,N/A,,Clear,170,2012-11-08 06:54:00
1:14 AM,35.6,32.0,87,30.02,10.0,SSE,8.1,-,N/A,,Clear,160,2012-11-08 07:14:00
1:35 AM,35.2,32.0,88,30.01,10.0,SSE,8.1,-,N/A,,Clear,160,2012-11-08 07:35:00
1:54 AM,35.4,32.0,87,30.00,10.0,SSE,10.4,-,N/A,,Clear,150,2012-11-08 07:54:00
2:14 AM,35.6,32.0,87,30.00,10.0,SSE,9.2,-,N/A,,Clear,160,2012-11-08 08:14:00
2:35 AM,35.6,32.0,87,30.00,10.0,SSE,9.2,-,N/A,,Clear,160,2012-11-08 08:35:00
2:54 AM,35.8,32.0,86,29.99,10.0,SSE,9.2,-,N/A,,Clear,160,2012-11-08 08:54:00
3:15 AM,35.8,32.0,86,29.98,10.0,SSE,8.1,16.1,N/A,,Clear,160,2012-11-08 09:15:00
3:34 AM,36.0,32.0,86,29.97,10.0,SSE,9.2,17.3,N/A,,Clear,160,2012-11-08 09:34:00
3:54 AM,35.8,32.0,86,29.96,10.0,SSE,10.4,-,N/A,,Clear,150,2012-11-08 09:54:00
4:15 AM,35.8,32.0,86,29.95,10.0,SSE,11.5,17.3,N/A,,Clear,150,2012-11-08 10:15:00
4:35 AM,35.2,32.0,88,29.95,10.0,SSE,8.1,-,N/A,,Clear,160,2012-11-08 10:35:00
4:54 AM,35.1,32.0,89,29.95,10.0,SSE,9.2,-,N/A,,Clear,160,2012-11-08 10:54:00
5:14 AM,35.1,32.0,89,29.94,10.0,SSE,9.2,-,N/A,,Clear,150,2012-11-08 11:14:00
5:35 AM,34.7,32.0,90,29.93,10.0,SSE,10.4,16.1,N/A,,Clear,160,2012-11-08 11:35:00
5:54 AM,34.7,32.0,90,29.94,10.0,SSE,9.2,-,N/A,,Clear,150,2012-11-08 11:54:00
6:14 AM,34.7,32.0,90,29.93,10.0,SSE,9.2,-,N/A,,Clear,150,2012-11-08 12:14:00
6:34 AM,34.9,32.0,89,29.92,10.0,SSE,9.2,-,N/A,,Clear,160,2012-11-08 12:34:00
6:54 AM,35.1,32.0,89,29.92,10.0,SSE,10.4,-,N/A,,Clear,150,2012-11-08 12:54:00
7:14 AM,35.1,32.0,89,29.92,10.0,SSE,8.1,-,N/A,,Clear,150,2012-11-08 13:14:00
7:35 AM,35.4,32.2,88,29.93,10.0,SSE,9.2,-,N/A,,Clear,160,2012-11-08 13:35:00
7:54 AM,36.0,32.4,87,29.94,10.0,South,6.9,-,N/A,,Clear,170,2012-11-08 13:54:00
8:14 AM,36.5,32.5,86,29.95,10.0,SSE,5.8,-,N/A,,Clear,160,2012-11-08 14:14:00
8:34 AM,37.0,33.1,86,29.95,10.0,SSE,4.6,-,N/A,,Clear,160,2012-11-08 14:34:00
8:55 AM,37.2,33.3,86,29.94,10.0,South,5.8,-,N/A,,Clear,170,2012-11-08 14:55:00
9:14 AM,40.1,34.3,80,29.94,10.0,South,5.8,-,N/A,,Clear,170,2012-11-08 15:14:00
9:34 AM,39.9,34.3,80,29.94,10.0,South,5.8,-,N/A,,Clear,180,2012-11-08 15:34:00
9:55 AM,42.4,35.1,75,29.94,10.0,South,6.9,-,N/A,,Clear,180,2012-11-08 15:55:00
10:14 AM,42.3,35.1,76,29.94,10.0,SSW,10.4,-,N/A,,Clear,200,2012-11-08 16:14:00
10:34 AM,44.1,36.0,73,29.94,10.0,SSW,6.9,-,N/A,,Clear,200,2012-11-08 16:34:00
10:55 AM,45.7,36.5,70,29.94,10.0,SW,9.2,-,N/A,,Clear,220,2012-11-08 16:55:00
11:14 AM,46.9,37.0,68,29.94,10.0,SSW,10.4,17.3,N/A,,Clear,210,2012-11-08 17:14:00
11:34 AM,46.8,37.0,69,29.94,10.0,SSW,10.4,-,N/A,,Clear,210,2012-11-08 17:34:00
11:55 AM,46.9,36.7,68,29.92,10.0,South,8.1,16.1,N/A,,Clear,190,2012-11-08 17:55:00
12:15 PM,46.8,36.9,68,29.92,10.0,SSW,4.6,-,N/A,,Clear,200,2012-11-08 18:15:00
12:34 PM,46.8,37.0,69,29.92,10.0,SSW,6.9,-,N/A,,Clear,210,2012-11-08 18:34:00
12:54 PM,48.6,37.6,66,29.92,10.0,WSW,5.8,-,N/A,,Clear,240,2012-11-08 18:54:00
1:14 PM,48.6,37.4,65,29.92,10.0,SW,5.8,-,N/A,,Clear,220,2012-11-08 19:14:00
1:35 PM,48.7,37.6,65,29.92,10.0,West,4.6,-,N/A,,Clear,270,2012-11-08 19:35:00
1:54 PM,49.1,37.8,65,29.92,10.0,WSW,3.5,-,N/A,,Clear,250,2012-11-08 19:54:00
2:14 PM,49.1,36.9,63,29.93,10.0,NW,4.6,-,N/A,,Clear,320,2012-11-08 20:14:00
2:35 PM,49.8,37.2,62,29.93,10.0,West,3.5,-,N/A,,Clear,270,2012-11-08 20:35:00
2:55 PM,50.2,36.9,60,29.93,10.0,NNW,4.6,-,N/A,,Clear,330,2012-11-08 20:55:00
3:14 PM,50.2,36.9,60,29.94,10.0,NNW,5.8,-,N/A,,Clear,330,2012-11-08 21:14:00
3:34 PM,50.0,36.7,60,29.95,10.0,NW,5.8,-,N/A,,Clear,310,2012-11-08 21:34:00
3:54 PM,49.6,36.7,61,29.95,10.0,NNW,4.6,-,N/A,,Clear,330,2012-11-08 21:54:00
4:15 PM,48.9,36.9,63,29.95,10.0,Calm,Calm,-,N/A,,Clear,0,2012-11-08 22:15:00
4:34 PM,48.2,36.5,64,29.95,10.0,Calm,Calm,-,N/A,,Clear,0,2012-11-08 22:34:00
4:54 PM,45.7,36.1,69,29.96,10.0,Calm,Calm,-,N/A,,Clear,0,2012-11-08 22:54:00
5:15 PM,44.2,36.7,75,29.97,10.0,Calm,Calm,-,N/A,,Clear,0,2012-11-08 23:15:00
5:34 PM,42.1,36.5,81,29.97,10.0,Calm,Calm,-,N/A,,Clear,0,2012-11-08 23:34:00
5:54 PM,39.2,34.9,84,29.98,10.0,Calm,Calm,-,N/A,,Clear,0,2012-11-08 23:54:00
6:15 PM,37.9,34.5,87,29.98,10.0,Calm,Calm,-,N/A,,Clear,0,2012-11-09 00:15:00
6:34 PM,37.9,35.1,89,29.99,10.0,Calm,Calm,-,N/A,,Clear,0,2012-11-09 00:34:00
6:54 PM,37.4,35.6,93,29.99,10.0,Calm,Calm,-,N/A,,Clear,0,2012-11-09 00:54:00
7:15 PM,34.7,32.9,93,30.00,10.0,Calm,Calm,-,N/A,,Clear,0,2012-11-09 01:15:00
7:34 PM,34.5,33.1,94,30.00,10.0,Calm,Calm,-,N/A,,Clear,0,2012-11-09 01:34:00
7:55 PM,34.2,33.3,97,29.99,10.0,Calm,Calm,-,N/A,,Clear,0,2012-11-09 01:55:00
8:15 PM,33.4,32.9,98,29.99,7.0,North,4.6,-,N/A,,Clear,10,2012-11-09 02:15:00
8:34 PM,35.2,34.2,96,30.00,10.0,North,5.8,-,N/A,,Clear,10,2012-11-09 02:34:00
8:54 PM,38.3,35.2,89,30.01,10.0,North,9.2,-,N/A,,Clear,10,2012-11-09 02:54:00
9:15 PM,37.4,34.9,91,30.01,10.0,North,5.8,-,N/A,,Clear,10,2012-11-09 03:15:00
9:35 PM,37.6,35.2,91,30.02,10.0,NNE,6.9,-,N/A,,Clear,20,2012-11-09 03:35:00
9:54 PM,38.5,36.0,91,30.03,10.0,NNE,9.2,-,N/A,,Clear,20,2012-11-09 03:54:00
10:14 PM,38.3,36.0,91,30.02,10.0,NNE,6.9,-,N/A,,Clear,20,2012-11-09 04:14:00
10:35 PM,37.4,35.4,93,30.03,10.0,NNE,5.8,-,N/A,,Clear,30,2012-11-09 04:35:00
10:54 PM,37.0,35.2,93,30.03,10.0,NNE,4.6,-,N/A,,Clear,30,2012-11-09 04:54:00
11:15 PM,37.0,35.2,93,30.03,10.0,NE,5.8,-,N/A,,Clear,40,2012-11-09 05:15:00
11:34 PM,36.7,35.1,94,30.03,10.0,NNE,5.8,-,N/A,,Clear,30,2012-11-09 05:34:00
11:55 PM,36.5,34.9,94,30.04,10.0,NE,5.8,-,N/A,,Clear,40,2012-11-09 05:55:00